Time,TemperatureF,DewpointF,PressureIn,WindDirection,WindDirectionDegrees,WindSpeedMPH,WindSpeedGustMPH,Humidity,HourlyPrecipIn,Conditions,Clouds,dailyrainin,SoftwareType,DateUTC
2013-07-28 00:05:00,53.7,46.0,29.97,NNW,330,9.0,0.0,76,0.00,,,-99.99,,2013-07-28 05:05:00,
2013-07-28 00:34:00,53.8,46.0,29.97,NNW,330,9.0,0.0,76,0.00,,,-99.99,,2013-07-28 05:34:00,
2013-07-28 01:04:00,53.9,46.0,29.97,NNW,330,9.0,0.0,71,0.00,,,-99.99,,2013-07-28 06:04:00,
2013-07-28 01:34:00,53.5,46.0,29.97,North,350,11.0,0.0,71,0.00,,,-99.99,,2013-07-28 06:34:00,
2013-07-28 02:04:00,53.5,44.0,29.97,North,350,13.0,0.0,66,0.00,,,-99.99,,2013-07-28 07:04:00,
2013-07-28 02:34:00,52.1,44.0,29.97,North,350,13.0,0.0,66,0.00,,,-99.99,,2013-07-28 07:34:00,
2013-07-28 03:04:00,52.5,46.0,29.97,NW,320,6.0,17.0,76,0.00,,,-99.99,,2013-07-28 08:04:00,
2013-07-28 03:35:00,51.7,46.0,29.97,NW,320,6.0,17.0,76,0.00,,,-99.99,,2013-07-28 08:35:00,
2013-07-28 04:04:00,51.5,46.0,29.97,NW,320,6.0,0.0,76,0.00,,,-99.99,,2013-07-28 09:04:00,
2013-07-28 04:35:00,51.5,46.0,29.97,NW,320,6.0,0.0,76,0.00,,,-99.99,,2013-07-28 09:35:00,
2013-07-28 05:04:00,50.8,46.0,29.98,NNW,340,6.0,0.0,76,0.00,,,-99.99,,2013-07-28 10:04:00,
2013-07-28 05:35:00,50.9,46.0,29.99,NNW,340,9.0,0.0,76,0.00,,,-99.99,,2013-07-28 10:35:00,
2013-07-28 06:04:00,51.5,46.0,29.98,North,350,9.0,0.0,76,0.00,,,-99.99,,2013-07-28 11:04:00,
2013-07-28 06:34:00,51.8,46.0,29.98,North,350,9.0,0.0,76,0.00,,,-99.99,,2013-07-28 11:34:00,
2013-07-28 07:04:00,52.6,46.0,29.99,North,360,6.0,0.0,76,0.00,,,-99.99,,2013-07-28 12:04:00,
2013-07-28 07:34:00,53.3,46.0,29.99,North,360,6.0,0.0,76,0.00,,,-99.99,,2013-07-28 12:34:00,
2013-07-28 08:04:00,53.9,46.0,30.00,NNW,340,11.0,0.0,71,0.00,,,-99.99,,2013-07-28 13:04:00,
2013-07-28 08:34:00,54.4,46.0,30.00,NNW,340,11.0,0.0,71,0.00,,,-99.99,,2013-07-28 13:34:00,
2013-07-28 09:04:00,55.5,46.0,30.00,NNW,330,6.0,0.0,71,0.00,,,-99.99,,2013-07-28 14:04:00,
2013-07-28 09:35:00,57.9,46.0,30.00,NNW,330,6.0,0.0,71,0.00,,,-99.99,,2013-07-28 14:35:00,
2013-07-28 10:04:00,58.7,48.0,29.99,NW,320,11.0,16.0,71,0.00,,,-99.99,,2013-07-28 15:04:00,
2013-07-28 10:35:00,58.4,46.0,30.00,WNW,290,11.0,0.0,62,0.00,,,-99.99,,2013-07-28 15:35:00,
2013-07-28 11:04:00,58.8,48.0,30.00,WNW,290,6.0,0.0,63,0.00,,,-99.99,,2013-07-28 16:04:00,
2013-07-28 11:35:00,61.9,48.0,30.00,WNW,290,6.0,0.0,63,0.00,,,-99.99,,2013-07-28 16:35:00,
2013-07-28 12:04:00,61.9,48.0,30.00,WNW,300,10.0,0.0,55,0.00,,,-99.99,,2013-07-28 17:04:00,
2013-07-28 12:35:00,62.0,48.0,30.00,WNW,300,10.0,0.0,55,0.00,,,-99.99,,2013-07-28 17:35:00,
2013-07-28 13:06:00,63.6,48.0,30.00,North,3,3.0,0.0,52,0.00,,,-99.99,,2013-07-28 18:06:00,
2013-07-28 13:34:00,65.8,48.0,30.00,North,3,3.0,0.0,52,0.00,,,-99.99,,2013-07-28 18:34:00,
2013-07-28 14:06:00,69.3,50.0,30.00,NW,310,6.0,18.0,49,0.00,,,-99.99,,2013-07-28 19:06:00,
2013-07-28 15:04:00,68.8,51.0,30.01,WNW,300,6.0,0.0,52,0.00,,,-99.99,,2013-07-28 20:04:00,
2013-07-28 15:36:00,69.6,51.0,30.01,WNW,300,6.0,0.0,52,0.00,,,-99.99,,2013-07-28 20:36:00,
2013-07-28 16:05:00,71.4,50.0,29.99,WNW,300,12.0,19.0,43,0.00,,,-99.99,,2013-07-28 21:05:00,
2013-07-28 16:36:00,71.5,50.0,29.99,WNW,300,12.0,19.0,43,0.00,,,-99.99,,2013-07-28 21:36:00,
2013-07-28 17:04:00,69.8,50.0,29.99,NNW,330,6.0,0.0,43,0.00,,,-99.99,,2013-07-28 22:04:00,
2013-07-28 17:35:00,73.8,50.0,29.99,NNW,330,6.0,0.0,43,0.00,,,-99.99,,2013-07-28 22:35:00,
2013-07-28 18:04:00,75.4,50.0,29.99,NNW,340,9.0,0.0,46,0.00,,,-99.99,,2013-07-28 23:04:00,
2013-07-28 18:35:00,77.0,50.0,29.99,NNW,340,9.0,0.0,46,0.00,,,-99.99,,2013-07-28 23:35:00,
2013-07-28 19:06:00,75.5,50.0,30.00,NNW,330,6.0,0.0,46,0.00,,,-99.99,,2013-07-29 00:06:00,
2013-07-28 19:35:00,69.6,50.0,30.00,NNW,330,6.0,0.0,46,0.00,,,-99.99,,2013-07-29 00:35:00,
2013-07-28 20:04:00,67.1,51.0,30.01,NNE,30,9.0,0.0,49,0.00,,,-99.99,,2013-07-29 01:04:00,
2013-07-28 20:35:00,65.8,51.0,30.01,NNE,30,9.0,0.0,49,0.00,,,-99.99,,2013-07-29 01:35:00,
2013-07-28 21:06:00,64.8,53.0,30.03,NNE,30,8.0,0.0,63,0.00,,,-99.99,,2013-07-29 02:06:00,
2013-07-28 21:34:00,64.3,53.0,30.03,NNE,30,8.0,0.0,63,0.00,,,-99.99,,2013-07-29 02:34:00,
2013-07-28 22:05:00,63.7,51.0,30.05,North,3,3.0,0.0,63,0.00,,,-99.99,,2013-07-29 03:05:00,
2013-07-28 22:34:00,62.9,51.0,30.05,North,3,3.0,0.0,63,0.00,,,-99.99,,2013-07-29 03:34:00,
2013-07-28 23:06:00,62.3,51.0,30.06,North,0,0.0,0.0,63,0.00,,,-99.99,,2013-07-29 04:06:00,
2013-07-28 23:36:00,62.4,51.0,30.06,North,0,0.0,0.0,63,0.00,,,-99.99,,2013-07-29 04:36:00,